TimeMDT,TemperatureF,Dew PointF,Humidity,Sea Level PressureIn,VisibilityMPH,Wind Direction,Wind SpeedMPH,Gust SpeedMPH,PrecipitationIn,Events,Conditions,WindDirDegrees,DateUTC
12:15 AM,66.2,42.8,43,29.46,10.0,SSE,5.8,-,N/A,,Clear,150,2011-10-06 06:15:00
12:35 AM,66.2,42.8,43,29.47,10.0,SSE,3.5,-,N/A,,Clear,160,2011-10-06 06:35:00
12:55 AM,68.0,44.6,43,29.46,10.0,SSE,9.2,-,N/A,,Clear,160,2011-10-06 06:55:00
1:15 AM,66.2,44.6,46,29.46,10.0,SSE,11.5,17.3,N/A,,Clear,150,2011-10-06 07:15:00
1:35 AM,68.0,44.6,43,29.46,10.0,SSE,11.5,-,N/A,,Clear,150,2011-10-06 07:35:00
1:55 AM,66.2,44.6,46,29.47,10.0,South,8.1,-,N/A,,Clear,170,2011-10-06 07:55:00
2:15 AM,66.2,44.6,46,29.46,10.0,SSE,10.4,-,N/A,,Clear,160,2011-10-06 08:15:00
2:35 AM,66.2,42.8,43,29.46,10.0,SSE,9.2,-,N/A,,Clear,150,2011-10-06 08:35:00
2:55 AM,66.2,42.8,43,29.46,10.0,SSE,8.1,-,N/A,,Clear,150,2011-10-06 08:55:00
3:15 AM,66.2,42.8,43,29.46,10.0,SSE,9.2,-,N/A,,Clear,150,2011-10-06 09:15:00
3:35 AM,66.2,42.8,43,29.45,10.0,SE,6.9,-,N/A,,Clear,130,2011-10-06 09:35:00
3:55 AM,64.4,42.8,45,29.45,10.0,East,4.6,-,N/A,,Partly Cloudy,100,2011-10-06 09:55:00
4:15 AM,64.4,42.8,45,29.45,10.0,SE,8.1,-,N/A,,Partly Cloudy,130,2011-10-06 10:15:00
4:35 AM,66.2,42.8,43,29.46,10.0,SSE,5.8,-,N/A,,Clear,150,2011-10-06 10:35:00
4:55 AM,64.4,42.8,45,29.46,10.0,SE,6.9,-,N/A,,Partly Cloudy,130,2011-10-06 10:55:00
5:15 AM,64.4,42.8,45,29.46,10.0,SE,8.1,-,N/A,,Scattered Clouds,140,2011-10-06 11:15:00
5:35 AM,64.4,44.6,49,29.46,10.0,SE,6.9,-,N/A,,Partly Cloudy,140,2011-10-06 11:35:00
5:55 AM,64.4,44.6,49,29.47,10.0,SSE,6.9,-,N/A,,Mostly Cloudy,150,2011-10-06 11:55:00
6:15 AM,60.8,48.2,63,29.48,10.0,South,8.1,-,N/A,,Overcast,180,2011-10-06 12:15:00
6:35 AM,62.6,48.2,59,29.49,10.0,South,10.4,-,N/A,,Overcast,170,2011-10-06 12:35:00
6:55 AM,60.8,50.0,68,29.48,10.0,ESE,4.6,-,N/A,,Overcast,120,2011-10-06 12:55:00
7:15 AM,57.2,51.8,82,29.47,10.0,ENE,5.8,-,N/A,,Overcast,70,2011-10-06 13:15:00
7:55 AM,59.0,51.8,77,29.47,10.0,East,6.9,-,N/A,,Overcast,90,2011-10-06 13:55:00
8:15 AM,60.8,51.8,72,29.47,10.0,East,6.9,-,N/A,,Mostly Cloudy,80,2011-10-06 14:15:00
8:35 AM,60.8,51.8,72,29.45,10.0,ENE,10.4,-,N/A,,Mostly Cloudy,70,2011-10-06 14:35:00
8:55 AM,60.8,51.8,72,29.47,10.0,East,11.5,-,N/A,,Overcast,100,2011-10-06 14:55:00
9:15 AM,60.8,51.8,72,29.46,10.0,East,11.5,-,N/A,,Overcast,80,2011-10-06 15:15:00
9:35 AM,62.6,51.8,68,29.47,10.0,ESE,12.7,-,N/A,,Mostly Cloudy,120,2011-10-06 15:35:00
9:55 AM,64.4,50.0,59,29.47,10.0,SE,9.2,-,N/A,,Mostly Cloudy,130,2011-10-06 15:55:00
10:15 AM,64.4,50.0,59,29.46,10.0,East,6.9,-,N/A,,Mostly Cloudy,100,2011-10-06 16:15:00
10:35 AM,66.2,51.8,60,29.47,10.0,SE,10.4,-,N/A,,Partly Cloudy,130,2011-10-06 16:35:00
10:55 AM,69.8,50.0,49,29.47,10.0,SSE,11.5,-,N/A,,Mostly Cloudy,150,2011-10-06 16:55:00
11:15 AM,68.0,50.0,52,29.46,10.0,SSE,10.4,-,N/A,,Partly Cloudy,150,2011-10-06 17:15:00
11:35 AM,68.0,48.2,49,29.46,10.0,SE,4.6,-,N/A,,Clear,130,2011-10-06 17:35:00
11:55 AM,68.0,48.2,49,29.45,10.0,East,8.1,-,N/A,,Clear,90,2011-10-06 17:55:00
12:15 PM,69.8,50.0,49,29.46,10.0,East,12.7,-,N/A,,Clear,100,2011-10-06 18:15:00
12:35 PM,69.8,48.2,46,29.46,10.0,ESE,9.2,-,N/A,,Clear,120,2011-10-06 18:35:00
12:55 PM,68.0,50.0,52,29.46,10.0,ESE,10.4,-,N/A,,Clear,110,2011-10-06 18:55:00
1:15 PM,69.8,51.8,53,29.45,10.0,East,10.4,-,N/A,,Clear,90,2011-10-06 19:15:00
1:35 PM,69.8,50.0,49,29.45,10.0,East,11.5,-,N/A,,Clear,90,2011-10-06 19:35:00
1:55 PM,71.6,51.8,50,29.45,10.0,ESE,11.5,-,N/A,,Clear,120,2011-10-06 19:55:00
2:15 PM,71.6,51.8,50,29.45,10.0,ESE,11.5,-,N/A,,Clear,110,2011-10-06 20:15:00
2:35 PM,73.4,50.0,44,29.45,10.0,SSE,12.7,19.6,N/A,,Clear,150,2011-10-06 20:35:00
2:55 PM,73.4,50.0,44,29.45,10.0,ESE,15.0,18.4,N/A,,Partly Cloudy,120,2011-10-06 20:55:00
3:15 PM,71.6,51.8,50,29.44,10.0,SE,13.8,17.3,N/A,,Clear,140,2011-10-06 21:15:00
3:35 PM,71.6,50.0,46,29.45,10.0,SE,12.7,-,N/A,,Clear,130,2011-10-06 21:35:00
3:55 PM,71.6,48.2,43,29.45,10.0,SE,9.2,-,N/A,,Clear,130,2011-10-06 21:55:00
4:15 PM,71.6,48.2,43,29.45,10.0,SE,12.7,19.6,N/A,,Mostly Cloudy,140,2011-10-06 22:15:00
4:35 PM,71.6,48.2,43,29.45,10.0,SSE,13.8,18.4,N/A,,Mostly Cloudy,150,2011-10-06 22:35:00
4:55 PM,71.6,51.8,50,29.45,10.0,SSE,18.4,24.2,N/A,,Mostly Cloudy,150,2011-10-06 22:55:00
5:15 PM,68.0,51.8,56,29.45,10.0,SE,11.5,-,N/A,,Overcast,140,2011-10-06 23:15:00
5:35 PM,69.8,51.8,53,29.45,10.0,SSE,13.8,-,N/A,,Mostly Cloudy,150,2011-10-06 23:35:00
5:55 PM,66.2,46.4,49,29.46,10.0,South,15.0,-,N/A,,Mostly Cloudy,170,2011-10-06 23:55:00
6:15 PM,66.2,48.2,52,29.46,10.0,South,11.5,-,N/A,Thunderstorm,Overcast,170,2011-10-07 00:15:00
6:35 PM,64.4,48.2,56,29.46,10.0,SSE,6.9,-,N/A,,Overcast,160,2011-10-07 00:35:00
6:55 PM,64.4,48.2,56,29.46,10.0,SE,5.8,-,N/A,,Overcast,140,2011-10-07 00:55:00
7:15 PM,64.4,48.2,56,29.47,10.0,SE,10.4,-,N/A,,Overcast,130,2011-10-07 01:15:00
7:35 PM,64.4,50.0,59,29.47,10.0,SE,8.1,-,N/A,,Overcast,140,2011-10-07 01:35:00
7:55 PM,62.6,51.8,68,29.46,10.0,ESE,6.9,-,N/A,,Overcast,120,2011-10-07 01:55:00
8:15 PM,62.6,48.2,59,29.45,10.0,South,3.5,-,N/A,,Mostly Cloudy,170,2011-10-07 02:15:00
8:35 PM,59.0,48.2,67,29.44,10.0,NNE,5.8,-,N/A,,Mostly Cloudy,20,2011-10-07 02:35:00
8:55 PM,59.0,50.0,72,29.43,10.0,Calm,Calm,-,N/A,,Overcast,0,2011-10-07 02:55:00
9:15 PM,59.0,50.0,72,29.43,10.0,NE,5.8,-,N/A,,Overcast,40,2011-10-07 03:15:00
9:35 PM,59.0,51.8,77,29.44,10.0,East,6.9,-,N/A,,Overcast,80,2011-10-07 03:35:00
9:55 PM,60.8,53.6,77,29.45,10.0,East,4.6,-,N/A,,Overcast,80,2011-10-07 03:55:00
10:15 PM,60.8,53.6,77,29.45,10.0,ENE,3.5,-,N/A,,Overcast,70,2011-10-07 04:15:00
10:35 PM,60.8,53.6,77,29.45,10.0,East,4.6,-,N/A,,Overcast,80,2011-10-07 04:35:00
10:55 PM,60.8,53.6,77,29.45,10.0,East,4.6,-,N/A,,Overcast,100,2011-10-07 04:55:00
11:15 PM,60.8,55.4,82,29.45,10.0,ESE,4.6,-,N/A,,Overcast,120,2011-10-07 05:15:00
11:35 PM,59.0,55.4,88,29.45,10.0,East,5.8,-,N/A,,Overcast,90,2011-10-07 05:35:00
11:55 PM,59.0,55.4,88,29.44,10.0,East,6.9,-,N/A,,Overcast,90,2011-10-07 05:55:00